Content
SEND FEEDBACK

Daily
Averages
Monthly
Summary
United States of America

INARAJAN, GUAM


Home > North America > United States > Guam
Elevation: 85 meters     Latitude: 13 18N     Longitude: 144 44E

WEATHER
 
SELECT A DAY
Number of Records: 356,396;   Date Range: 1/1/95 - 12/17/14
 
SHARE

PRINT THIS DATA

[ ← Previous Day ]
WEATHER ALMANAC - 6 FEBRUARY, 2013
[ Next Day → ]
[ °F ]   °C
Weather ElementAverageHighLow
Temperature26.1 °C29 °C (1:52 pm)24 °C (1:46 am)
Dewpoint22 °C23 °C (9:16 am)21 °C (12:19 am)
Humidity78.3 %89 % (1:46 am)66 % (1:52 pm)
Barometer1011.5 hPa1012.9 hPa (8:40 am)1009.1 hPa (3:55 pm)
Wind Speed20.3 km/h29.6 km/h (12:20 am)
Wind Gust33.3 km/h (11:08 am)
Weather ElementAverage
Visibility16.1 km
Wind DirectionENE (75.9 °)

Weather ElementTotal
Precipitation0.25 mm
Cooling Degree Days8.2 (Base 18.3)
Growing Degree Days16.5 (Base 10)
Averaged from 82 records on 6 February, 2013
WEATHER CONDITIONS BREAKOUT
WIND DIRECTION BREAKOUT
WEATHER BY HOUR - 6 FEBRUARY, 2013
[ °F ]   °C
Local TimeTemperatureDewpointHumidityBarometerVisibilityWind DirectionWind SpeedGust SpeedPrecipitationEventsConditions
12:19 AM25 °C21 °C78 %1011.9 hPa16.1 kmENE (60°)27.8 km/hOvercast
12:20 AM25 °C21 °C78 %1011.9 hPa16.1 kmENE (60°)29.6 km/hOvercast
12:21 AM25 °C21 °C78 %1011.9 hPa16.1 kmENE (60°)24.1 km/hOvercast
12:23 AM25 °C21 °C78 %1011.9 hPa16.1 kmENE (60°)24.1 km/hOvercast
12:26 AM25 °C21 °C78 %1011.9 hPa16.1 kmENE (60°)24.1 km/hMostly Cloudy
12:28 AM25 °C21 °C78 %1011.9 hPa16.1 kmENE (60°)24.1 km/hMostly Cloudy
12:45 AM25 °C21 °C78 %1011.9 hPa16.1 kmENE (60°)22.2 km/hOvercast
12:55 AM25 °C21.4 °C80 %1011.9 hPa16.1 kmENE (60°)24.1 km/hMostly Cloudy
1:10 AM25 °C21 °C78 %1011.5 hPa16.1 kmENE (60°)25.9 km/hOvercast
1:12 AM25 °C21 °C78 %1011.5 hPa16.1 kmENE (60°)25.9 km/hMostly Cloudy
1:22 AM25 °C22 °C83 %1011.5 hPa16.1 kmENE (60°)24.1 km/hMostly Cloudy
1:25 AM25 °C22 °C83 %1011.5 hPa16.1 kmENE (60°)22.2 km/hRainLight Rain
1:46 AM24 °C22 °C89 %1011.5 hPa16.1 kmENE (60°)22.2 km/hOvercast
1:55 AM24.4 °C22 °C86 %1011.5 hPa16.1 kmENE (60°)24.1 km/h0.25 mmMostly Cloudy
2:20 AM25 °C22 °C83 %1011.2 hPa16.1 kmENE (60°)22.2 km/hMostly Cloudy
2:43 AM25 °C22 °C83 %1011.2 hPa16.1 kmENE (70°)20.4 km/hOvercast
2:55 AM24.7 °C21.6 °C83 %1011.2 hPa16.1 kmEast (80°)24.1 km/hMostly Cloudy
3:55 AM24.4 °C21.3 °C83 %1010.8 hPa16.1 kmEast (80°)20.4 km/hScattered Clouds
4:55 AM24.4 °C21.5 °C84 %1011.2 hPa16.1 kmEast (80°)16.7 km/hScattered Clouds
5:38 AM25 °C22 °C83 %1011.2 hPa16.1 kmEast (80°)16.7 km/hMostly Cloudy
5:46 AM25 °C22 °C83 %1011.5 hPa16.1 kmEast (80°)14.8 km/hMostly Cloudy
5:55 AM24.5 °C21.7 °C84 %1011.5 hPa16.1 kmEast (90°)16.7 km/hScattered Clouds
6:55 AM24.8 °C21.7 °C83 %1011.9 hPa16.1 kmENE (70°)20.4 km/hScattered Clouds
7:28 AM25 °C22 °C83 %1012.2 hPa16.1 kmEast (80°)20.4 km/hMostly Cloudy
7:55 AM26.1 °C21.8 °C77 %1012.5 hPa16.1 kmEast (80°)20.4 km/hMostly Cloudy
7:59 AM26 °C22 °C78 %1012.5 hPa16.1 kmEast (90°)16.7 km/hScattered Clouds
8:01 AM26 °C22 °C78 %1012.5 hPa16.1 kmEast (80°)18.5 km/hMostly Cloudy
8:03 AM26 °C22 °C78 %1012.5 hPa16.1 kmEast (80°)14.8 km/hScattered Clouds
8:40 AM26 °C22 °C78 %1012.9 hPa16.1 kmENE (70°)24.1 km/hMostly Cloudy
8:44 AM26 °C22 °C78 %1012.9 hPa16.1 kmEast (90°)18.5 km/hMostly Cloudy
8:54 AM27 °C22 °C74 %1012.9 hPa16.1 kmENE (70°)25.9 km/hMostly Cloudy
8:55 AM27.1 °C22.3 °C75 %1012.9 hPa16.1 kmENE (70°)25.9 km/hMostly Cloudy
9:16 AM27 °C23 °C79 %1012.9 hPa16.1 kmEast (100°)24.1 km/hOvercast
9:17 AM27 °C23 °C79 %1012.9 hPa16.1 kmEast (100°)22.2 km/hOvercast
9:18 AM27 °C23 °C79 %1012.9 hPa16.1 kmEast (100°)20.4 km/hOvercast
9:45 AM27 °C23 °C79 %1012.9 hPa16.1 kmEast (90°)20.4 km/hScattered Clouds
9:55 AM27.4 °C22.7 °C75 %1012.9 hPa16.1 kmEast (100°)20.4 km/hScattered Clouds
10:10 AM27 °C23 °C79 %1012.9 hPa16.1 kmEast (80°)20.4 km/hMostly Cloudy
10:12 AM27 °C23 °C79 %1012.9 hPa16.1 kmENE (70°)18.5 km/hMostly Cloudy
10:18 AM28 °C23 °C74 %1012.9 hPa16.1 kmEast (90°)18.5 km/hMostly Cloudy
10:33 AM27 °C23 °C79 %1012.5 hPa16.1 kmENE (60°)22.2 km/hMostly Cloudy
10:39 AM28 °C23 °C74 %1012.5 hPa16.1 kmENE (70°)22.2 km/hMostly Cloudy
10:44 AM27 °C23 °C79 %1012.5 hPa16.1 kmENE (60°)22.2 km/hScattered Clouds
10:55 AM26.9 °C22.6 °C77 %1012.5 hPa16.1 kmENE (60°)24.1 km/hScattered Clouds
10:59 AM27 °C23 °C79 %1012.5 hPa16.1 kmEast (80°)18.5 km/hMostly Cloudy
11:08 AM28 °C23 °C74 %1012.2 hPa16.1 kmEast (80°)24.1 km/h33.3 km/hMostly Cloudy
11:10 AM28 °C23 °C74 %1012.2 hPa16.1 kmEast (90°)20.4 km/h33.3 km/hMostly Cloudy
11:26 AM28 °C23 °C74 %1012.2 hPa16.1 kmEast (100°)20.4 km/hOvercast
11:37 AM27 °C23 °C79 %1011.9 hPa16.1 kmEast (90°)20.4 km/hOvercast
11:55 AM27.9 °C22.3 °C71 %1011.9 hPa16.1 kmEast (90°)20.4 km/hMostly Cloudy
12:03 PM28 °C22 °C70 %1011.5 hPa16.1 kmEast (100°)20.4 km/hScattered Clouds
12:47 PM28 °C23 °C74 %1011.2 hPa16.1 kmENE (70°)20.4 km/hMostly Cloudy
12:51 PM28 °C22 °C70 %1011.2 hPa16.1 kmEast (90°)14.8 km/hScattered Clouds
12:52 PM28 °C23 °C74 %1011.2 hPa16.1 kmEast (90°)16.7 km/h27.8 km/hMostly Cloudy
12:55 PM27.8 °C22.6 °C73 %1011.2 hPa16.1 kmENE (70°)16.7 km/h27.8 km/hMostly Cloudy
1:52 PM29 °C22 °C66 %1010.2 hPa16.1 kmEast (90°)16.7 km/hScattered Clouds
1:55 PM28.7 °C22.2 °C68 %1010.2 hPa16.1 kmEast (90°)20.4 km/hScattered Clouds
1:57 PM29 °C22 °C66 %1010.2 hPa16.1 kmEast (80°)16.7 km/hMostly Cloudy
2:45 PM28 °C22 °C70 %1009.5 hPa16.1 kmENE (70°)18.5 km/hScattered Clouds
2:55 PM27.8 °C22.5 °C73 %1009.5 hPa16.1 kmENE (70°)20.4 km/hPartly Cloudy
3:55 PM27.1 °C22.4 °C75 %1009.1 hPa16.1 kmEast (80°)22.2 km/hScattered Clouds
4:55 PM26.7 °C21.9 °C75 %1009.5 hPa16.1 kmENE (70°)14.8 km/hPartly Cloudy
5:55 PM25.8 °C21.6 °C77 %1009.8 hPa16.1 kmENE (70°)16.7 km/hPartly Cloudy
6:55 PM25.3 °C22.2 °C83 %1010.2 hPa16.1 kmEast (80°)18.5 km/hMostly Cloudy
7:07 PM25 °C22 °C83 %1010.2 hPa16.1 kmENE (60°)18.5 km/hMostly Cloudy
7:11 PM25 °C22 °C83 %1010.2 hPa16.1 kmENE (70°)14.8 km/hMostly Cloudy
7:55 PM24.4 °C21.4 °C83 %1010.8 hPa16.1 kmENE (60°)13 km/hClear
8:31 PM25 °C22 °C83 %1011.2 hPa16.1 kmENE (70°)13 km/hMostly Cloudy
8:35 PM25 °C22 °C83 %1011.5 hPa16.1 kmENE (70°)13 km/hScattered Clouds
8:55 PM24.8 °C21.4 °C81 %1011.5 hPa16.1 kmENE (70°)14.8 km/hScattered Clouds
9:47 PM25 °C22 °C83 %1011.9 hPa16.1 kmEast (80°)22.2 km/hMostly Cloudy
9:53 PM25 °C22 °C83 %1011.9 hPa16.1 kmENE (70°)20.4 km/hMostly Cloudy
9:55 PM25.3 °C21.6 °C80 %1011.9 hPa16.1 kmEast (80°)24.1 km/hMostly Cloudy
9:57 PM25 °C21 °C78 %1011.9 hPa16.1 kmEast (80°)22.2 km/hMostly Cloudy
9:58 PM25 °C21 °C78 %1011.9 hPa16.1 kmEast (80°)22.2 km/hMostly Cloudy
10:01 PM25 °C21 °C78 %1011.9 hPa16.1 kmEast (80°)20.4 km/hMostly Cloudy
10:03 PM25 °C21 °C78 %1011.9 hPa16.1 kmEast (80°)16.7 km/hMostly Cloudy
10:07 PM25 °C21 °C78 %1011.9 hPa16.1 kmEast (80°)16.7 km/hMostly Cloudy
10:47 PM25 °C22 °C83 %1011.5 hPa16.1 kmEast (80°)20.4 km/hMostly Cloudy
10:54 PM25 °C21 °C78 %1011.5 hPa16.1 kmEast (80°)16.7 km/hMostly Cloudy
10:55 PM25.1 °C21.4 °C80 %1011.5 hPa16.1 kmEast (80°)16.7 km/hMostly Cloudy
11:55 PM24.7 °C21.3 °C81 %1011.5 hPa16.1 kmEast (80°)14.8 km/hScattered Clouds
Hourly data recorded from PGUA, located 0 kilometers away from Inarajan, Guam







STORIES FROM OUR PARTNERS